Gold Coast Seaway Observation History
Time Wind Speed Temp Pressure Rel. Hum Rain
18/09:30pm ENE 11-13 kts 21.0°c 1021.0 hPa 92% 0.0mm
18/09:00pm ENE 11-15 kts 21.1°c 1020.8 hPa 92% 0.0mm
18/08:30pm ENE 10-13 kts 21.1°c 1020.7 hPa 93% 0.0mm
18/08:00pm E 12-15 kts 20.7°c 1020.5 hPa 98% 0.0mm
18/07:30pm E 10-13 kts 20.7°c 1020.2 hPa 94% 0.0mm
18/07:00pm ENE 10-12 kts 21.2°c 1020.1 hPa 92% 0.0mm
18/06:30pm ENE 10-12 kts 21.5°c 1019.3 hPa 92% 0.0mm
18/06:00pm E 11-14 kts 21.4°c 1018.8 hPa 89% 0.0mm
18/05:30pm ENE 11-15 kts 21.6°c 1018.5 hPa 89% 0.0mm
18/05:00pm ENE 12-15 kts 22.1°c 1018.1 hPa 89% 0.0mm
18/04:30pm ENE 14-17 kts 21.8°c 1017.9 hPa 88% 0.0mm
18/04:00pm ENE 14-16 kts 22.2°c 1017.7 hPa 85% 0.0mm
18/03:30pm ENE 14-16 kts 22.4°c 1017.6 hPa 86% 0.0mm
18/03:00pm ENE 13-16 kts 22.8°c 1017.5 hPa 84% 0.0mm
18/02:30pm ENE 14-17 kts 23.5°c 1017.4 hPa 79% 0.0mm
18/02:00pm ENE 12-15 kts 23.3°c 1017.7 hPa 80% 0.0mm
18/01:30pm ENE 13-15 kts 23.1°c 1018.0 hPa 77% 0.0mm
18/01:00pm ENE 11-14 kts 23.6°c 1018.3 hPa 79% 0.0mm
18/12:30pm ENE 11-14 kts 23.9°c 1018.4 hPa 81% 0.0mm
18/12:00pm ENE 12-14 kts 23.5°c 1018.8 hPa 80% 0.0mm
18/11:30am NE 12-14 kts 23.7°c 1019.1 hPa 80% 0.0mm
18/11:00am ENE 12-14 kts 23.9°c 1019.2 hPa 81% 0.0mm
18/10:30am ENE 11-13 kts 23.0°c 1019.4 hPa 82% 0.0mm
18/10:00am ENE 11-13 kts 24.2°c 1019.4 hPa 81% 0.0mm
18/09:30am ENE 11-13 kts 23.4°c 1019.5 hPa 85% 0.0mm
18/09:00am ENE 11-13 kts 22.6°c 1019.4 hPa 89% 1.4mm
18/08:30am ENE 12-14 kts 22.6°c 1019.2 hPa 91% 1.4mm
18/08:00am ENE 13-14 kts 22.7°c 1019.1 hPa 97% 1.4mm
18/07:30am ENE 13-16 kts 21.9°c 1018.9 hPa 99% 1.4mm
18/07:00am ENE 12-14 kts 21.3°c 1018.6 hPa 99% 1.4mm
18/06:30am NE 13-15 kts 21.4°c 1018.4 hPa 100% 1.4mm
18/06:00am ENE 13-16 kts 21.0°c 1018.0 hPa 100% 1.4mm
18/05:30am ENE 14-16 kts 20.7°c 1017.7 hPa 100% 1.4mm
18/05:00am ENE 12-14 kts 20.7°c 1017.4 hPa 100% 1.4mm
18/04:30am N 8-12 kts 20.3°c 1017.1 hPa 100% 1.4mm
18/04:00am N 10-14 kts 20.4°c 1016.8 hPa 100% 1.0mm
18/03:30am NNE 13-16 kts 20.4°c 1016.5 hPa 100% 0.8mm
18/03:00am NE 15-17 kts 20.6°c 1016.3 hPa 100% 0.8mm
18/02:30am ENE 15-18 kts 20.2°c 1016.3 hPa 100% 0.8mm
18/02:00am E 10-13 kts 20.3°c 1016.3 hPa 100% 0.6mm
18/01:30am E 11-14 kts 20.4°c 1016.5 hPa 100% 0.6mm
18/01:00am E 11-15 kts 20.5°c 1016.7 hPa 100% 0.6mm
18/12:30am E 13-15 kts 20.8°c 1017.1 hPa 100% 0.6mm
18/12:00am ESE 13-15 kts 20.9°c 1017.3 hPa 100% 0.6mm
Time Wind Speed Temp Pressure Rel. Hum Rain
17/11:30pm ESE 13-15 kts 20.7°c 1017.5 hPa 100% 0.6mm
17/11:00pm ESE 14-16 kts 20.8°c 1017.7 hPa 100% 0.6mm
17/10:30pm ESE 14-16 kts 20.7°c 1017.6 hPa 100% 0.6mm
17/10:00pm ESE 12-16 kts 20.0°c 1017.6 hPa 100% 0.6mm
17/09:30pm ESE 12-16 kts 20.9°c 1017.6 hPa 99% 0.6mm
17/09:00pm ESE 11-14 kts 21.2°c 1017.4 hPa 99% 0.6mm
17/08:30pm ESE 13-14 kts 21.2°c 1017.4 hPa 99% 0.6mm
17/08:00pm ESE 12-14 kts 21.3°c 1017.3 hPa 99% 0.6mm
17/07:30pm E 12-14 kts 21.1°c 1016.9 hPa 99% 0.6mm
17/07:00pm ESE 12-14 kts 21.1°c 1016.4 hPa 99% 0.6mm
17/06:30pm E 11-14 kts 21.5°c 1016.3 hPa 99% 0.6mm
17/06:00pm ESE 10-11 kts 21.4°c 1016.3 hPa 99% 0.6mm
17/05:30pm ESE 11-12 kts 21.4°c 1016.0 hPa 98% 0.6mm
17/05:00pm ESE 11-14 kts 21.8°c 1015.8 hPa 94% 0.6mm
17/04:30pm ESE 11-13 kts 22.3°c 1015.6 hPa 92% 0.6mm
17/04:00pm E 10-13 kts 22.9°c 1015.6 hPa 86% 0.6mm
17/03:30pm E 10-12 kts 23.5°c 1015.6 hPa 87% 0.6mm
17/03:00pm E 9-10 kts 23.2°c 1015.5 hPa 85% 0.6mm
17/02:30pm E 9-10 kts 23.5°c 1015.6 hPa 87% 0.6mm
17/02:00pm E 8-9 kts 23.1°c 1015.9 hPa 87% 0.6mm
17/01:30pm ESE 9 kts 23.4°c 1016.2 hPa 89% 0.6mm
17/01:00pm ESE 8-9 kts 23.1°c 1016.8 hPa 99% 0.6mm
17/12:30pm ESE 5-8 kts 22.0°c 1017.1 hPa 96% 0.4mm
17/12:00pm ESE 9-10 kts 25.2°c 1017.2 hPa 78% 0.0mm
17/11:30am ESE 9-10 kts 24.4°c 1017.4 hPa 86% 0.0mm
17/11:00am ESE 8-10 kts 23.7°c 1017.7 hPa 82% 0.0mm
17/10:30am E 9-11 kts 23.2°c 1018.0 hPa 84% 0.0mm
17/10:00am ESE 9-10 kts 25.1°c 1018.2 hPa 81% 0.0mm
17/09:30am ESE 9-11 kts 24.4°c 1018.6 hPa 80% 0.0mm
17/09:00am SE 9-11 kts 23.3°c 1018.5 hPa 85% 0.2mm
17/08:30am SSE 11-14 kts 23.4°c 1018.4 hPa 94% 0.2mm
17/08:00am SSE 9-11 kts 22.9°c 1018.4 hPa 99% 0.2mm
17/07:30am SSE 10-12 kts 22.3°c 1018.5 hPa 93% 0.2mm
17/07:00am SE 10-12 kts 22.5°c 1018.0 hPa 97% 0.2mm
17/06:30am SE 11-14 kts 21.6°c 1017.6 hPa 99% 0.2mm
17/06:00am SE 11-13 kts 20.6°c 1017.4 hPa 100% 0.2mm
17/05:30am SE 11-13 kts 20.2°c 1017.1 hPa 100% 0.2mm
17/05:00am SE 11-13 kts 20.1°c 1016.9 hPa 100% 0.2mm
17/04:30am ESE 12-14 kts 20.3°c 1016.5 hPa 100% 0.2mm
17/04:00am ESE 12-14 kts 20.4°c 1016.3 hPa 100% 0.2mm
17/03:30am ESE 12-14 kts 20.3°c 1016.3 hPa 100% 0.2mm
17/03:00am ESE 12-14 kts 20.2°c 1016.4 hPa 100% 0.2mm
17/02:30am ESE 11-14 kts 20.4°c 1016.7 hPa 100% 0.2mm
17/02:00am E 9-11 kts 20.3°c 1016.8 hPa 100% 0.2mm
17/01:30am E 11-14 kts 20.5°c 1016.9 hPa 100% 0.2mm
17/01:00am ESE 11-14 kts 20.6°c 1017.0 hPa 100% 0.2mm
17/12:30am E 11-14 kts 20.6°c 1016.9 hPa 100% 0.2mm
17/12:00am ESE 15-17 kts 20.7°c 1016.9 hPa 100% 0.2mm
Time Wind Speed Temp Pressure Rel. Hum Rain
16/11:30pm ESE 14-16 kts 20.8°c 1017.2 hPa 100% 0.2mm
16/11:00pm ESE 12-14 kts 20.6°c 1017.5 hPa 100% 0.2mm
16/10:30pm E 11-14 kts 20.9°c 1017.8 hPa 100% 0.2mm
16/10:00pm E 12-14 kts 20.7°c 1018.0 hPa 100% 0.2mm
16/09:30pm ESE 12-16 kts 20.9°c 1018.4 hPa 100% 0.2mm
16/09:00pm ESE 14-16 kts 20.8°c 1018.3 hPa 100% 0.2mm
16/08:30pm ESE 15-16 kts 20.8°c 1018.2 hPa 100% 0.2mm
16/08:00pm ESE 14-16 kts 21.1°c 1018.0 hPa 100% 0.2mm
16/07:30pm ESE 14-16 kts 21.0°c 1017.8 hPa 100% 0.2mm
16/07:00pm ESE 15-16 kts 21.2°c 1017.7 hPa 99% 0.2mm
16/06:30pm ESE 14-16 kts 21.3°c 1017.6 hPa 99% 0.2mm
16/06:00pm ESE 15-17 kts 21.2°c 1017.2 hPa 99% 0.2mm
16/05:30pm ESE 15-17 kts 21.4°c 1016.9 hPa 99% 0.2mm
16/05:00pm ESE 14-16 kts 21.7°c 1016.7 hPa 99% 0.2mm
16/04:30pm ESE 15-17 kts 21.9°c 1016.6 hPa 97% 0.2mm
16/04:00pm ESE 15-17 kts 22.1°c 1016.5 hPa 93% 0.2mm
16/03:30pm ESE 15-17 kts 22.9°c 1016.3 hPa 90% 0.2mm
16/03:00pm ESE 14-16 kts 23.3°c 1016.4 hPa 92% 0.2mm
16/02:30pm ESE 14-15 kts 23.6°c 1016.5 hPa 90% 0.2mm
16/02:00pm ESE 15-17 kts 23.4°c 1016.7 hPa 90% 0.2mm
16/01:30pm ESE 15-16 kts 23.5°c 1016.9 hPa 91% 0.2mm
16/01:00pm E 13-16 kts 23.5°c 1017.3 hPa 95% 0.2mm
16/12:30pm ESE 15-17 kts 23.3°c 1017.6 hPa 94% 0.2mm
16/12:00pm ESE 15-18 kts 23.8°c 1017.9 hPa 95% 0.2mm
16/11:30am ESE 15-18 kts 23.2°c 1018.2 hPa 98% 0.2mm
16/11:00am ESE 17-19 kts 23.1°c 1018.4 hPa 98% 0.2mm
16/10:30am ESE 16-18 kts 22.8°c 1018.7 hPa 99% 0.0mm
16/10:00am ESE 16-19 kts 23.1°c 1018.8 hPa 99% 0.0mm
16/09:30am ESE 16-19 kts 22.3°c 1018.9 hPa 100% 0.0mm
16/09:00am ESE 18-20 kts 22.2°c 1018.9 hPa 100% 14.2mm
16/08:30am ESE 18-20 kts 21.9°c 1018.6 hPa 100% 14.2mm
16/08:00am E 17-20 kts 20.6°c 1018.6 hPa 100% 14.2mm
16/07:30am ESE 17-21 kts 20.9°c 1018.2 hPa 100% 13.8mm
16/07:00am ESE 17-24 kts 20.7°c 1017.9 hPa 100% 13.8mm
16/06:30am ESE 20-25 kts 20.7°c 1017.5 hPa 100% 13.6mm
16/06:00am ESE 18-21 kts 20.4°c 1017.4 hPa 100% 13.6mm
16/05:30am ESE 20-24 kts 20.3°c 1017.1 hPa 100% 13.6mm
16/05:00am ESE 23-26 kts 19.8°c 1016.7 hPa 100% 13.6mm
16/04:30am SE 23-27 kts 19.8°c 1016.2 hPa 100% 13.6mm
16/04:00am SE 27-32 kts 20.1°c 1015.8 hPa 100% 13.4mm
16/03:30am SE 25-29 kts 20.1°c 1015.9 hPa 100% 13.4mm
16/03:00am SE 23-29 kts 19.9°c 1016.0 hPa 100% 13.2mm
16/02:30am SE 26-31 kts 19.8°c 1016.1 hPa 100% 12.2mm
16/02:00am SE 26-31 kts 19.7°c 1016.4 hPa 100% 12.2mm
16/01:30am SE 27-33 kts 19.8°c 1016.5 hPa 100% 11.4mm
16/01:00am SE 28-34 kts 19.9°c 1016.8 hPa 100% 11.2mm
16/12:30am SE 27-34 kts 20.0°c 1017.4 hPa 100% 11.2mm
16/12:00am SE 27-32 kts 20.1°c 1017.8 hPa 100% 11.0mm